OpenBCM V2.0.3 (Linux)

Packet Radio Mailbox

IZ3LSV

[San Dona' di P. JN]

 Login: GUEST





  
I0OJJ  > AMSAT    17.08.26 02:40l 331 Lines 15656 Bytes #999 (0) @ WW
BID : NX3T_IR0EQ
Read: GUEST
Subj: 2Line Orbital Elements
Path: IZ3LSV<IR1UAW<IR1UAW<IR0AAB<IR0EQ
Sent: 260817/0027z @:IR0EQ.ITA.EU [Rome] $:NX3T_IR0EQ

>From i0ojj@rgate.ampr.org Mon Aug 17 02:27:35 2026
Received: from rgate.ampr.org by rgate.ampr.org (JNOS2.0q.1) with SMTP
	id AA1115993 ; Mon, 17 Aug 2026 02:27:35 +0200
Received: by rgate.ampr.org with SMTP
	id AA1115990 ; Mon, 17 Aug 2026 02:27:02 +0200
Message-Id: <1115991@rgate.ampr.org>
>From: i0ojj@rgate.ampr.org

SB KEPS @ AMSAT  $ORB26229.1
2Line Orbital Elements 26229.AMSAT

QST de W1STR

AMSAT Orbital Elements for Amateur Satellites in TLE Format
>From Orbital Analysis Office
New England Sci-Tech STEM Education Center
Natick MA August 17, 2026
To all radio amateurs


These element sets describe the orbits of various satellites 
in use by the amateur radio community. For details see:
www.amsat.org/keplerian-elements-formats/

A daily update of element sets is available at:
www.amsat.org/tle/daily-bulletin.txt
or without bulletin text:
www.amsat.org/tle/dailytle.txt


AO-07
1 07530U 74089B   26228.29930727 -.00000049  00000-0 -13279-4 0  9993
2 07530 101.9919 242.1742 0012360  18.4320 352.6587 12.53699110368054
UO-11
1 14781U 84021B   26228.42529729  .00000686  00000-0  75221-4 0  9997
2 14781  97.8116 193.3507 0007400 357.7159   2.4024 14.90921273266106
LO-19
1 20442U 90005G   26228.32222668  .00000027  00000-0  26435-4 0  9990
2 20442  98.8842 251.7810 0012130  34.7069 325.4904 14.34137751911018
AO-27
1 22825U 93061C   26228.41374849  .00000041  00000-0  32617-4 0  9996
2 22825  98.6837 295.7920 0007232 285.6793  74.3591 14.30955481715619
FO-29
1 24278U 96046B   26228.41806484 -.00000053  00000-0 -14791-4 0  9999
2 24278  98.5195  69.0338 0348912 300.2391  56.4634 13.53276808481314
GO-32
1 25397U 98043D   26228.40289753  .00000012  00000-0  25566-4 0  9999
2 25397  99.0119 222.6936 0002212  64.5653 295.5753 14.24438287459909
ISS
1 25544U 98067A   26228.56710022  .00005115  00000-0  99348-4 0  9992
2 25544  51.6334   1.2594 0007609  53.1141 307.0544 15.49461657581119
NO-44
1 26931U 01043C   26228.36562613  .00000033  00000-0  43263-4 0  9999
2 26931  67.0499  88.6219 0005652 269.5083  90.5371 14.31975095299068
SO-50
1 27607U 02058C   26228.37003882  .00000525  00000-0  79746-4 0  9997
2 27607  64.5527 302.7648 0073437 251.4312 107.8808 14.83159165273383
CO-55
1 27844U 03031E   26228.44971121  .00000148  00000-0  82935-4 0  9995
2 27844  98.6760 236.2567 0009907  18.0174 342.1354 14.24367213200254
RS-22
1 27939U 03042A   26228.64861063  .00000755  00000-0  12415-3 0  9996
2 27939  98.3482  54.7262 0012569  77.8076 346.7729 14.73560635224455
CO-65
1 32785U 08021C   26228.49661015  .00003291  00000-0  20693-3 0  9996
2 32785  97.8334 211.2102 0008782 171.6893 188.4482 15.09935533994291
CO-66
1 32791U 08021J   26228.48481661  .00012541  00000-0  37615-3 0  9999
2 32791  97.7550 229.3608 0004970  96.1924 263.9884 15.34611535996534
RS-30
1 32953U 08025A   26228.61800319  .00000039  00000-0  21047-3 0  9994
2 32953  82.5078 317.8563 0019881 176.5687 183.5532 12.43181919827209
SRMSAT
1 37841U 11058D   26228.66132384  .00000335  00000-0  37897-4 0  9990
2 37841  19.9727  53.4249 0011725 149.1389 278.0045 14.11586534766371
ZACUBE-1
1 39417U 13066B   26228.59070715  .00003499  00000-0  27002-3 0  9993
2 39417  97.8015 191.2134 0042609  50.5841 309.9143 15.01530159689799
Delfi-N3xt
1 39428U 13066N   26228.53372859  .00005876  00000-0  50440-3 0  9996
2 39428  97.8303 148.8028 0073973   7.5694 352.6624 14.95739088683648
GOMX-1
1 39430U 13066Q   26228.58103363  .00000695  00000-0  11138-3 0  9991
2 39430  97.6447  65.2355 0126776 243.2357 115.5833 14.69604684678789
LO-74
1 39440U 13066AA  26228.61043356  .00001949  00000-0  18234-3 0  9998
2 39440  97.8941 177.8735 0056821 185.3024 174.7602 14.94118226686019
AO-73
1 39444U 13066AE  26228.36503275  .00004602  00000-0  28158-3 0  9990
2 39444  97.8333 201.1165 0035804   2.2151 357.9229 15.10218024688740
DTUSAT-2
1 40030U 14033W   26228.45868613  .00004066  00000-0  21732-3 0  9993
2 40030  98.0899 230.0555 0008853  40.8869 319.3025 15.15694909661815
LILACSAT-2
1 40908U 15049K   26228.60454848  .00013067  00000-0  20836-3 0  9998
2 40908  97.4598 267.8085 0007520  46.6515 313.5364 15.53336358605123
Lapan A3
1 41603U 16040E   26228.62367491  .00001902  00000-0  61089-4 0  9993
2 41603  97.1537 222.8118 0010989 149.2149 210.9741 15.33438961564078
CAS-2T
1 41847U 16066G   26228.49195249  .00000272  00000-0  48241-4 0  9990
2 41847  98.3787 303.5383 0340307 306.7092  50.3278 14.44806113513508
TechnoSat
1 42829U 17042E   26228.41533136  .00001195  00000-0  87658-4 0  9999
2 42829  97.4357  23.8198 0015907 245.9289 114.0274 15.05250355495765
AO-91
1 43017U 17073E   26228.58651525  .00006384  00000-0  27311-3 0  9998
2 43017  97.4608  94.5696 0149864 119.6076 242.0183 15.13469995474526
S-Net D
1 43186U 18014G   26228.29166215  .00003022  00000-0  15562-3 0  9997
2 43186  97.5286 132.7064 0008545 157.5105 202.6505 15.17150140467877
S-Net B
1 43187U 18014H   26228.30432262  .00002829  00000-0  14602-3 0  9996
2 43187  97.5293 132.7074 0009279 154.1885 205.9813 15.17118548467874
S-Net A
1 43188U 18014J   26228.48807766  .00003038  00000-0  15637-3 0  9993
2 43188  97.5302 133.1104 0009230 153.7258 206.4446 15.17159188467908
S-Net C
1 43189U 18014K   26228.24259734  .00002750  00000-0  14204-3 0  9993
2 43189  97.5321 132.9504 0010701 149.5904 210.5952 15.17108156466419
Ten-Koh
1 43677U 18084G   26228.50497758  .00001215  00000-0  94850-4 0  9992
2 43677  98.0738  63.4153 0008538 278.4223  81.6033 15.03138539425222
PO-101
1 43678U 18084H   26228.58436615  .00000869  00000-0  73892-4 0  9993
2 43678  98.1202  67.4483 0010595 335.1288  24.9423 15.00650670425278
QO-100
1 43700U 18090A   26228.28358558  .00000134  00000-0  00000-0 0  9994
2 43700   0.0153 101.2345 0002566  77.9386 273.3674  1.00274065 28276
MinXSS-2
1 43758U 18099A   26228.17102071  .00029571  00000-0  51000-3 0  9996
2 43758  97.4485 306.3831 0006810  57.4863 302.7046 15.50968228423410
AO-95
1 43770U 18099N   26228.61504196  .00007418  00000-0  27512-3 0  9990
2 43770  97.4330 288.6728 0009997 128.6901 231.5234 15.27854424422449
SNUSat 2
1 43782U 18099AA  26228.61094422  .00005318  00000-0  23109-3 0  9994
2 43782  97.4010 281.0853 0011825  86.5299 273.7290 15.22654439422223
SnugLite
1 43784U 18099AC  26228.59645394  .00007144  00000-0  26148-3 0  9998
2 43784  97.3816 282.3168 0004563  85.9605 274.2156 15.28337201422549
ITASat 1
1 43786U 18099AE  26228.61051654  .00004382  00000-0  20789-3 0  9999
2 43786  97.3979 278.9289 0013725 136.2724 223.9600 15.19709946422081
EAGLET 1
1 43790U 18099AJ  26228.09844718  .00002182  00000-0  12587-3 0  9990
2 43790  97.4189 276.1805 0012326 133.0787 227.1478 15.13326653421390
ESEO
1 43792U 18099AL  26228.04548278  .00001426  00000-0  10611-3 0  9995
2 43792  97.3941 262.8645 0013217 125.6390 234.6070 15.04399392420804
JO-97
1 43803U 18099AX  26228.15126555  .00011186  00000-0  32714-3 0  9992
2 43803  97.4075 291.2557 0006743  68.4482 291.7480 15.35416523422829
Suomi 100
1 43804U 18099AY  26228.41195881  .00007870  00000-0  27577-3 0  9996
2 43804  97.4136 288.6207 0011202  72.5762 287.6703 15.29687258422621
ISAT
1 43879U 18111D   26228.39159898  .00155676  00000-0  85417-3 0  9993
2 43879  97.5828 168.8382 0008779 101.5399 258.6854 15.79291741420625
UWE-4
1 43880U 18111E   26228.59241496  .00027936  00000-0  50415-3 0  9990
2 43880  97.5825 159.9290 0010083 100.8486 259.3900 15.49663131420121
Sparrow
1 43881U 18111F   26228.43502384  .06041846  26546-5  91668-3 0  9995
2 43881  97.5898 176.4549 0010987 196.6625 163.4311 16.34108377420946
Prox-1
1 44339U 19036A   26228.61249388  .00008977  00000-0  83897-3 0  9992
2 44339  23.9949  70.1890 0006142  17.2542 342.8165 14.91859310382508
Taurus 1
1 44530U 19059C   26228.58881910  .00003030  00000-0  48423-3 0  9990
2 44530  98.6474  37.2099 0009687 120.0847 240.1321 14.72638353367537
TO-108
1 44881U 19093C   26228.62431105  .00000873  00000-0  10444-3 0  9993
2 44881  97.7492 299.3726 0012053 246.0673 113.9281 14.86599064360390
RS-44
1 44909U 19096E   26228.43805896  .00000025  00000-0  58560-4 0  9999
2 44909  82.5227 299.6762 0217455   3.8149 356.4546 12.79748826310050
SALSAT
1 46495U 20068K   26227.98005762  .00005107  00000-0  17554-3 0  9998
2 46495  97.8876 234.7279 0011455  92.8579 267.3972 15.30544320324502
CSS (TIANHE-1)
1 48274U 21035A   26228.63767603  .00000539  00000-0  10869-4 0  9999
2 48274  41.4707 315.0480 0001142 254.5183 105.5529 15.59030639302606
TeikyoSat 4
1 49396U 21102B   26228.04193553  .00000956  00000-0  63009-4 0  9999
2 49396  97.3654 255.1981 0013764  87.7022 272.5783 15.09688110261759
Z-Sat
1 49399U 21102E   26228.56021236  .00003608  00000-0  17659-3 0  9993
2 49399  97.3292 262.0561 0017663  40.9878 319.2680 15.18671675262601
KOSEN 1
1 49402U 21102H   26228.55101040  .00004483  00000-0  16851-3 0  9994
2 49402  97.3145 269.5538 0013126   2.3397 357.7902 15.27594038263238
HO-113
1 50466U 21131B   26228.58706146  .00000471  00000-0  15895-3 0  9999
2 50466  98.4985 320.6506 0002862 280.8801  79.2065 14.41405105243815
SNUGLITE 2
1 52899U 22065F   26228.63810146  .00000493  00000-0  10241-3 0  9994
2 52899  98.2284  13.3920 0007354 184.1938 175.9204 14.64440876219845
UmKA 1 (RS40S)
1 57172U 23091G   26228.61363563  .00003496  00000-0  15878-3 0  9994
2 57172  97.4999 287.0881 0010789 267.6133  92.3867 15.21403521173198
CubeBel-2 (EU11S)
1 57175U 23091K   26228.62045036  .00007779  00000-0  26653-3 0  9991
2 57175  97.4998 292.4210 0007791 256.0776 103.9598 15.30461074173546
RS-38S
1 57189U 23091Z   26228.63195975  .00011464  00000-0  31131-3 0  9998
2 57189  97.5042 299.3928 0006560 199.6352 160.4641 15.37735184173976
